Location: Malvern Link
(52.1333°N, 2.3000°W)
Time: 10:44:31
(UTC+00:00)

AO-92 - Pass Details

Date: 07 July 2022
Orbit: 470 x 481 km, 97.4° (Epoch: 07 August)

Event Time Altitude Azimuth Distance (km) Brightness Sun altitude
Exits shadow 23:18:35 - 229° (SW) 1,889 ? -14.4°
Reaches altitude 10° 23:19:31 10° 240° (WSW) 1,661 ? -14.4°
Maximum altitude 23:21:22 14° 271° (W) 1,461 ? -14.5°
Drops below altitude 10° 23:23:13 10° 302° (WNW) 1,672 ? -14.5°
Sets 23:26:12 0° 330° (NNW) 2,562 ? -14.6°
